Location: Pasadena-CA
(34.1440°N, 118.1100°W)
Time: 12:29:03
(UTC-07:00)

FALCONSAT 3 - Pass Details

Date: 05 July 2022
Orbit: 395 x 399 km, 35.4° (Epoch: 08 August)

Event Time Altitude Azimuth Distance (km) Brightness Sun altitude
Rises 20:33:48 0° 269° (W) 2,344 ? -5.5°
Reaches altitude 10° 20:35:56 10° 271° (W) 1,481 ? -5.9°
Maximum altitude 20:39:17 70° 355° (N) 440 ? -6.5°
Drops below altitude 10° 20:42:38 10° 81° (E) 1,476 ? -7.0°
Enters shadow 20:43:56 - 83° (E) 1,994 ? -7.3°
